Danvers, MA

2:14 PM EST on January 18, 2017 (GMT -0500)
Beverly Municipal

Weather History for KBVY - May, 2012

Change the Weather History Date:

Thursday, May 10, 2012

  Actual Average Record
Temperature  
Mean Temperature 56 °F -  
Max Temperature 63 °F 61 °F 88 °F (2015)
Min Temperature 48 °F 42 °F 22 °F (1987)
Degree Days  
Heating Degree Days 9    
Growing Degree Days 6 (Base 50)    
Moisture  
Dew Point 52 °F    
Average Humidity 89    
Maximum Humidity 100    
Minimum Humidity 54    
Precipitation  
Precipitation 0.94 in - - ()
Sea Level Pressure  
Sea Level Pressure 29.45 in    
Wind  
Wind Speed 6 mph (WNW)    
Max Wind Speed 17 mph    
Max Gust Speed 24 mph    
Visibility 7 miles    
Events Rain    
Averages and records for this station are not official NWS values.
T = Trace of Precipitation, MM = Missing Value Source: NWS Daily Summary

Daily Weather History Graph

Daily Weather History Graph

Search for Another Location

Airport or City:

Trip Planner

Search our weather history database for the weather conditions in past years. The results will help you decide how hot, cold, wet, or windy it might be!

Date:

Astronomy

May. 10, 2012 Rise Set
Actual Time 5:26 AM EDT 7:54 PM EDT
Civil Twilight 4:54 AM EDT 8:26 PM EDT
Nautical Twilight 4:15 AM EDT 9:05 PM EDT
Astronomical Twilight 3:30 AM EDT 9:50 PM EDT
Moon No Moon Rise 9:47 AM EDT (5/10)
Length of Visible Light 15h 31m
Length of Day
14h 27m
Waning Gibbous, 73% of the Moon is Illuminated
May 10
Waning Gibbous
May 12
Last Quarter
May 20
New
May 28
First Quarter
Jun 4
Full

Hourly Weather History & Observations

Time (EDT) Temp. Dew Point Humidity Pressure Visibility Wind Dir Wind Speed Gust Speed Precip Events Conditions
12:53 AM 57.9 °F 57.9 °F 100% 29.55 in 5.0 mi South 3.5 mph - 0.02 in Rain Light Rain
1:37 AM 57.2 °F 57.2 °F 100% 29.53 in 1.8 mi Variable 4.6 mph - 0.12 in Rain Heavy Rain
1:48 AM 57.2 °F 57.2 °F 100% 29.53 in 3.0 mi Calm Calm - 0.16 in Rain Light Rain
1:53 AM 57.0 °F 57.0 °F 100% 29.51 in 5.0 mi Calm Calm - 0.17 in Rain Light Rain
2:19 AM 57.2 °F 57.2 °F 100% 29.52 in 1.8 mi Calm Calm - 0.10 in Rain Heavy Rain
2:26 AM 57.2 °F 57.2 °F 100% 29.51 in 3.0 mi Calm Calm - 0.12 in Rain Rain
2:35 AM 57.2 °F 57.2 °F 100% 29.50 in 4.0 mi Calm Calm - 0.14 in Rain Rain
2:43 AM 57.2 °F 57.2 °F 100% 29.49 in 5.0 mi Calm Calm - 0.16 in Rain Rain
2:51 AM 55.4 °F 55.4 °F 100% 29.49 in 4.0 mi Calm Calm - 0.18 in Rain Rain
2:52 AM 55.9 °F 55.9 °F 100% 29.47 in 4.0 mi Calm Calm - 0.18 in Rain Rain
3:22 AM 55.4 °F 55.4 °F 100% 29.47 in 5.0 mi Calm Calm - 0.04 in Rain Light Rain
3:53 AM 55.9 °F 55.9 °F 100% 29.44 in 5.0 mi Calm Calm - 0.08 in Rain Light Rain
4:13 AM 55.4 °F 55.4 °F 100% 29.45 in 4.0 mi Calm Calm - 0.03 in Rain Rain
4:53 AM 55.9 °F 55.9 °F 100% 29.42 in 4.0 mi NW 5.8 mph - 0.13 in Rain Rain
5:02 AM 55.4 °F 55.4 °F 100% 29.42 in 3.0 mi North 6.9 mph - 0.03 in Rain Rain
5:16 AM 55.4 °F 55.4 °F 100% 29.41 in 3.0 mi NNW 13.8 mph 23.0 mph 0.09 in Rain Heavy Rain
5:45 AM 53.6 °F 53.6 °F 100% 29.40 in 5.0 mi NNW 11.5 mph - 0.17 in Rain Rain
5:53 AM 53.1 °F 53.1 °F 100% 29.38 in 6.0 mi NNW 17.3 mph 24.2 mph 0.18 in Rain Light Rain
6:05 AM 53.6 °F 51.8 °F 94% 29.39 in 4.0 mi NNW 12.7 mph 23.0 mph 0.02 in Rain Rain
6:31 AM 51.8 °F 51.8 °F 100% 29.42 in 2.5 mi NW 13.8 mph 20.7 mph 0.07 in Rain Rain
6:50 AM 51.8 °F 51.8 °F 100% 29.41 in 3.0 mi NNW 10.4 mph - 0.11 in Rain Rain
6:53 AM 52.0 °F 52.0 °F 100% 29.39 in 4.0 mi NNW 11.5 mph - 0.11 in Rain Rain
7:53 AM 52.0 °F 52.0 °F 100% 29.40 in 7.0 mi NW 9.2 mph - 0.03 in Rain Light Rain
8:13 AM 51.8 °F 51.8 °F 100% 29.40 in 7.0 mi NW 8.1 mph - 0.01 in Rain Light Rain
8:27 AM 51.8 °F 51.8 °F 100% 29.41 in 9.0 mi NW 9.2 mph - 0.01 in Rain Light Rain
8:51 AM 51.8 °F 51.8 °F 100% 29.40 in 10.0 mi NW 9.2 mph - 0.01 in Rain Light Rain
8:53 AM 52.0 °F 52.0 °F 100% 29.39 in 10.0 mi NW 10.4 mph - 0.01 in Rain Light Rain
9:21 AM 51.8 °F 51.8 °F 100% 29.40 in 9.0 mi NW 9.2 mph - 0.01 in Rain Light Rain
9:49 AM 53.6 °F 51.8 °F 94% 29.40 in 8.0 mi NW 6.9 mph - 0.03 in Rain Light Rain
9:53 AM 53.1 °F 52.0 °F 96% 29.39 in 9.0 mi WNW 8.1 mph - 0.03 in Rain Light Rain
10:53 AM 54.0 °F 52.0 °F 93% 29.36 in 10.0 mi NNW 8.1 mph - 0.00 in   Overcast
11:00 AM 53.6 °F 51.8 °F 94% 29.37 in 10.0 mi North 9.2 mph - N/A   Overcast
11:13 AM 55.4 °F 53.6 °F 94% 29.37 in 10.0 mi WNW 9.2 mph - N/A   Overcast
11:21 AM 55.4 °F 53.6 °F 94% 29.39 in 10.0 mi West 8.1 mph - N/A   Overcast
11:53 AM 55.9 °F 53.1 °F 90% 29.39 in 10.0 mi West 8.1 mph - N/A   Overcast
12:04 PM 55.4 °F 51.8 °F 88% 29.40 in 10.0 mi WNW 12.7 mph 17.3 mph N/A   Overcast
12:53 PM 59.0 °F 51.1 °F 75% 29.40 in 10.0 mi WNW 6.9 mph - N/A   Overcast
1:01 PM 59.0 °F 50.0 °F 72% 29.41 in 10.0 mi WNW 11.5 mph 20.7 mph N/A   Overcast
1:53 PM 60.1 °F 50.0 °F 69% 29.40 in 10.0 mi West 6.9 mph - N/A   Overcast
2:53 PM 60.1 °F 48.0 °F 64% 29.43 in 10.0 mi West 6.9 mph - 0.00 in   Overcast
3:53 PM 62.1 °F 50.0 °F 65% 29.43 in 10.0 mi West 9.2 mph 16.1 mph 0.00 in   Mostly Cloudy
4:53 PM 61.0 °F 46.9 °F 60% 29.45 in 10.0 mi WNW 10.4 mph 18.4 mph 0.00 in   Overcast
5:53 PM 61.0 °F 44.1 °F 54% 29.47 in 10.0 mi WNW 12.7 mph 19.6 mph N/A   Mostly Cloudy
6:53 PM 57.9 °F 42.1 °F 56% 29.51 in 10.0 mi West 11.5 mph 20.7 mph N/A   Mostly Cloudy
7:53 PM 55.0 °F 41.0 °F 59% 29.56 in 10.0 mi WSW 9.2 mph 19.6 mph N/A   Overcast
8:53 PM 53.1 °F 39.9 °F 61% 29.59 in 10.0 mi West 6.9 mph - N/A   Overcast
9:53 PM 51.1 °F 39.9 °F 66% 29.62 in 10.0 mi West 8.1 mph - N/A   Mostly Cloudy
10:53 PM 50.0 °F 39.9 °F 68% 29.63 in 10.0 mi West 8.1 mph - N/A   Overcast
11:53 PM 48.9 °F 39.9 °F 71% 29.65 in 10.0 mi West 11.5 mph 18.4 mph N/A   Mostly Cloudy